Location: Gwatt
(46.7204°N, 7.6223°E)
Time: 01:23:14
(UTC+00:00)

Cosmos 1626 - Pass Details

Date: 18 September 2020
Orbit: 490 x 495 km, 82.5° (Epoch: 31 October)

Event Time Altitude Azimuth Distance (km) Brightness Sun altitude
Rises 20:13:27 0° 349° (N) 2,590 6.4 -26.4°
Reaches altitude 10° 20:15:35 10° 349° (N) 1,701 5.4 -26.7°
Enters shadow 20:17:29 29° 346° (NNW) 944 3.9 -27.0°
